Home > Weather > Osnabrück > Past weeks

Flag for Germany Past Weather in Osnabrück, Lower Saxony, Germany — Yesterday and Last 2 Weeks

Now
73 °F

Overcast.


Feels Like: 75 °F
Forecast: 61 / 83 °F
Wind: 3 mph from North

Location: Muenster / Osnabrueck

Current Time: Jul 23, 2016 at 3:16:22 PM

Latest Report: Jul 23, 2016 at 2:20 PM


Visibility: 6 mi

Pressure: 30.09 "Hg

Humidity: 74%

Dew Point: 64 °F

Location of OsnabrückLocation

Past Weather in Osnabrück — Graph

°F

Osnabrück Temperature Yesterday

Maximum temperature yesterday: 77 °F (at 4:20 PM)
Minimum temperature yesterday: 64 °F (at 12:50 AM)
Average temperature yesterday: 70 °F

High & Low Weather Summary for the Past Weeks

 TemperatureHumidityPressure
High93 °F (Jul 20, 3:50 PM)100% (Jul 13, 2:50 AM)30.27 "Hg (Jul 13, 2:50 AM)
Low48 °F (Jul 14, 5:20 AM)23% (Jul 19, 12:50 PM)29.74 "Hg (Jul 10, 7:20 PM)
Average67 °F71%30.03 "Hg
* Reported Jul 8 2:20 PM — Jul 23 2:20 PM, Osnabrück, Weather by CustomWeather, © 2016

Note: Actual official high and low records may vary slightly from our data, if they occured in-between our weather recording intervals... More about our weather records

Advertising

Osnabrück Weather History for the Previous 24 Hours

Scroll right to see more
 ConditionsComfort  
Time TempWeatherWind HumidityBarometerVisibility
2:20 PM
Sat, Jul 23
73 °FOvercast.3 mph74%30.09 "Hg6 mi
1:50 PM72 °FOvercast.6 mph83%30.09 "Hg6 mi
1:20 PM72 °FClear.5 mph78%30.09 "Hg6 mi
12:50 PM72 °FOvercast.6 mph78%30.09 "Hg6 mi
12:20 PM72 °FMostly cloudy.7 mph78%30.09 "Hg5 mi
11:50 AM70 °FPartly sunny.8 mph78%30.07 "Hg5 mi
11:20 AM72 °FPartly sunny.7 mph78%30.07 "Hg4 mi
10:50 AM70 °FBroken clouds.7 mph83%30.07 "Hg4 mi
10:20 AM72 °FBroken clouds.9 mph78%30.07 "Hg4 mi
9:50 AM68 °FBroken clouds.9 mph83%30.07 "Hg4 mi
9:20 AM68 °FFog.8 mph88%30.07 "Hg3 mi
8:50 AM66 °FFog.7 mph88%30.07 "Hg2 mi
8:20 AM66 °FFog.6 mph94%30.07 "Hg2 mi
7:50 AM66 °FFog.5 mph94%30.04 "Hg2 mi
7:20 AM66 °FFog.3 mph94%30.04 "Hg2 mi
6:50 AM64 °FFog.1 mph94%30.04 "Hg2 mi
6:20 AM64 °FFog.3 mph94%30.04 "Hg2 mi
5:50 AM64 °FFog.5 mph94%30.04 "Hg2 mi
5:20 AM64 °FFog.5 mph94%30.04 "Hg3 mi
4:50 AM64 °FClear.3 mph94%30.04 "Hg6 mi
4:20 AM66 °FClear.No wind88%30.04 "Hg6 mi
3:50 AM64 °FClear.2 mph94%30.04 "Hg6 mi
3:20 AM66 °FClear.2 mph88%30.04 "Hg6 mi
2:50 AM66 °FPassing clouds.3 mph88%30.04 "HgN/A
2:20 AM66 °FPassing clouds.3 mph88%30.04 "HgN/A
1:50 AM66 °FPassing clouds.5 mph88%30.04 "HgN/A
1:20 AM66 °FClear.7 mph88%30.04 "Hg10 mi
12:50 AM66 °FPassing clouds.5 mph88%30.04 "HgN/A
12:20 AM68 °FClear.7 mph83%30.04 "Hg10 mi
11:50 PM
Fri, Jul 22
68 °FClear.8 mph83%30.04 "Hg10 mi
11:20 PM66 °FPassing clouds.3 mph88%30.04 "HgN/A
10:50 PM68 °FClear.2 mph83%30.04 "Hg10 mi
10:20 PM68 °FPassing clouds.5 mph83%30.04 "HgN/A
9:50 PM70 °FPassing clouds.7 mph83%30.04 "HgN/A
9:20 PM72 °FSunny.7 mph78%30.04 "Hg10 mi
8:50 PM73 °FSunny.6 mph74%30.04 "Hg10 mi
8:20 PM75 °FPassing clouds.5 mph69%30.01 "HgN/A
7:50 PM77 °FPassing clouds.5 mph65%30.01 "HgN/A
7:20 PM77 °FPassing clouds.5 mph65%30.01 "HgN/A
6:50 PM77 °FPassing clouds.5 mph65%30.01 "HgN/A
6:20 PM77 °FPassing clouds.6 mph61%30.01 "HgN/A
5:50 PM77 °FPassing clouds.5 mph61%30.01 "HgN/A
5:20 PM77 °FPassing clouds.3 mph61%30.01 "HgN/A
4:50 PM75 °FBroken clouds.3 mph61%30.01 "HgN/A
4:20 PM77 °FScattered showers. Partly sunny.2 mph57%30.01 "HgN/A
3:50 PM75 °FScattered showers. Broken clouds.5 mph65%30.01 "HgN/A
3:20 PM73 °FPassing clouds.6 mph69%30.04 "HgN/A
Weather by CustomWeather, © 2016

See weather overviewHow to use our weather pages